Retour au catalogue

STARLINK-5559

ActifCommunicationsSSO
NORAD 56335·PAYLOAD·🇺🇸 United States

Lancé Apr 27, 2023 depuis Vandenberg Space Force Base

Loading…

Prochains Passages (prochaines 24 heures)

TLE

FraisSource: CelesTrak SupGP

Époque: Sep 14, 2026, 22:00 UTC

1 56335C 23058U   26257.91715278  .00057226  00000+0  17767-2 0  2570
2 56335  97.2849 254.7636 0001592  84.7597 151.2622 15.33405377    11

Suivez STARLINK-5559 en temps réel avec AllMySat

Download on the App Store